www.pogodaiklimat.ru

Погода и климат >> Архив погоды >> Гана >> Кет-Крачи


ПОГОДА в Кет-Крачи

  • Прогноз погоды в Кет-Крачи
  • Монитор погоды в Кет-Крачи

АРХИВ ПОГОДЫ в Кет-Крачи

Время (UTC), дата Ветер
(напр.,м/с)
 
Видим.   Явления Облачность Т
(С)
Тd
(С)
f
(%)
Тe
(С)
Тes
(С)
Комфортность P
(гПа)
Po
(гПа)
Тmin
(С)
Tmax
(С)
R
(мм)
R24
(мм)
S
(см)
00 18.03 штиль 0 18 км 8/0
[Ac trans]
+30.1 +24.9 74 +43 +43 опасность
перегрева
1010.0 996.2
03 18.03 штиль 0 16 км 8/0
[Ac trans]
+28.5 +24.3 78 +40 +40 очень
душно
1008.1 994.3
06 18.03 штиль 0 16 км 8/0
[Ac trans]
+27.4 +24.0 82 +38 +38 очень
душно
1008.3 994.4 +25.9
09 18.03 ЮЗ 2 22 км 9/0
[Ac trans]
+30.7 +24.4 69 +43 +48 опасность
перегрева
1011.0 997.2
12 18.03 ЮЗ 2 24 км 9/3 480 м
[Cu med, cong Ac trans]
+36.0 +24.7 52 +49 +56 опасность
перегрева
1009.1 995.6
15 18.03 ЮЗ 2 24 км 8/3 500 м
[Cu med, cong Ac trans]
+37.9 +23.5 44 +48 +53 опасность
перегрева
1006.1 992.7
18 18.03 ЮЗ 2 22 км 8/0
[Ac trans Cs]
+35.4 +24.1 52 +47 +47 опасность
перегрева
1006.5 993.0 +37.9
21 18.03 ЮЗ 2 16 км 9/0
[Ac trans]
+31.5 +24.8 68 +45 +45 опасность
перегрева
1008.5 994.8
00 19.03 ЮВ 3 16 км 9/0
[Ac trans]
+31.0 +24.5 68 +43 +43 опасность
перегрева
1009.3 995.6
03 19.03 ЮВ 3 16 км 9/0
[Ac trans]
+29.5 +24.8 76 +42 +42 опасность
перегрева
1007.8 994.0
09 19.03 ЮЗ 2 22 км 8/0 300 м
[Ac As Cs]
+30.7 +24.4 69 +43 +49 опасность
перегрева
1010.5 996.7
12 19.03 З 2 25 км 5/5 540 м
[Cu med, cong Ci sp]
+35.2 +24.2 53 +47 +58 опасность
перегрева
1008.9 995.3
15 19.03 ЮЗ 2 25 км 4/4 540 м
[Cu med, cong]
+37.0 +23.8 47 +48 +55 опасность
перегрева
1005.6 992.2
18 19.03 СВ 1 20 км 8/1 900 м
[Cb cap Ac trans Cs]
+36.0 +24.7 52 +49 +49 опасность
перегрева
1005.2 991.7 +37.2
21 19.03 ЮЗ 2 16 км 9/0
[Ac trans]
+33.3 +24.7 61 +46 +46 опасность
перегрева
1008.4 994.8
00 20.03 ЮВ 3 16 км гроза без осадков 9/1 900 м
[Cb cap Ac trans]
+30.9 +25.4 73 +45 +45 опасность
перегрева
1009.5 995.8
03 20.03 ЮЗ 2 16 км 9/4 400 м
[Sc Ac trans]
+30.0 +25.6 77 +44 +44 опасность
перегрева
1007.4 993.6
06 20.03 ЮЗ 2 20 км 9/0
[Ac trans]
+29.3 +24.1 74 +41 +41 опасность
перегрева
1008.7 994.9 +28.7
09 20.03 З 2 22 км 9/4 480 м
[Cu med, cong Ac trans Cs]
+30.5 +23.7 67 +42 +46 опасность
перегрева
1011.6 997.8
12 20.03 ЮЗ 2 24 км 9/4 540 м
[Cu med, cong Cs]
+30.4 +23.9 68 +42 +54 опасность
перегрева
1009.7 995.9
15 20.03 ЮЗ 2 26 км 9/4 540 м
[Cu med, cong Cs]
+37.0 +24.3 48 +49 +55 опасность
перегрева
1005.3 991.9
18 20.03 Ю 1 20 км 9/5 400 м
[Cb cap Ac trans Cs]
+35.0 +24.3 54 +47 +47 опасность
перегрева
1005.3 991.8 +37.2
21 20.03 штиль 0 18 км 9/0
[Ac trans Cs]
+32.5 +26.6 71 +49 +49 опасность
перегрева
1008.6 994.9
09 21.03 ЮЗ 2 20 км {дождь} 9/0
[Ac trans Cs]
+28.9 +24.9 79 +41 +49 опасность
перегрева
1010.4 996.5
12 21.03 СЗ 1 20 км {дождь} 9/5 400 м
[Cu Sc Ac trans]
+31.5 +26.1 73 +47 +54 опасность
перегрева
1010.0 996.3 0.5
15 21.03 СЗ 1 20 км 9/3 480 м
[Cu med, cong Ac trans Cs]
+34.2 +25.6 61 +49 +54 опасность
перегрева
1005.9 992.3
18 21.03 штиль 0 12 км 9/3 400 м
[Sc Ac trans Cs]
+33.2 +25.5 64 +48 +48 опасность
перегрева
1005.3 991.7 +34.3 0.5
21 21.03 штиль 0 16 км 9/0
[Ac trans]
+31.5 +28.4 84 +53 +53 опасность
перегрева
1008.3 994.6
06 22.03 ЮЗ 3 9000 м гроза, ливневой дождь 9/6 360 м
[Cb cap Ac trans]
+25.5 +22.4 83 +33 +33 очень
душно
1009.9 995.9 +25.0 2
09 22.03 ЮЗ 2 24 км {гроза, дождь} 9/0
[Ac trans]
+27.5 +22.6 75 +36 +42 очень
душно
1011.3 997.4
12 22.03 ЮВ 2 24 км {гроза, дождь} 9/0
[Ac trans]
+30.7 +23.2 64 +41 +52 опасность
перегрева
1010.6 996.8 0.2
15 22.03 Ю 2 24 км 9/0
[Ac trans Cs]
+32.5 +22.1 54 +41 +47 опасность
перегрева
1007.4 993.8
18 22.03 ЮЗ 1 22 км 8/0
[Ac trans]
+32.0 +23.9 62 +43 +43 опасность
перегрева
1007.0 993.3 +33.5
21 22.03 штиль 0 18 км 9/0
[Ac trans Cs]
+29.5 +24.1 73 +41 +41 опасность
перегрева
1009.4 995.6
00 23.03 ЮЗ 1 18 км 9/4 400 м
[Sc Ac trans]
+26.0 +23.8 88 +36 +36 очень
душно
1009.7 995.7
03 23.03 Ю 1 18 км 8/0
[Ac trans]
+27.4 +23.8 81 +38 +38 очень
душно
1008.5 994.6
06 23.03 штиль 0 19 км 9/0
[Ac trans Cs]
+26.6 +24.6 89 +38 +38 очень
душно
1009.3 995.4 +26.3
12 23.03 ЮЗ 2 24 км 9/0
[Ac trans Cs]
+33.8 +23.9 56 +45 +58 опасность
перегрева
1010.8 997.2
15 23.03 ЮЗ 2 24 км 9/1 420 м
[Cu med, cong Ac trans]
+35.9 +21.4 43 +43 +48 опасность
перегрева
1007.3 993.8
18 23.03 ЮЗ 1 24 км 8/1 900 м
[Cb cap Ac trans Ci sp]
+34.5 +22.9 51 +44 +44 опасность
перегрева
1007.1 993.5 +35.9
21 23.03 штиль 0 16 км 8/0
[Ac trans Cs]
+31.0 +26.8 78 +48 +48 опасность
перегрева
1009.5 995.8
00 24.03 штиль 0 16 км 8/0
[Ac trans]
+29.5 +27.5 89 +48 +48 опасность
перегрева
1009.7 995.9
03 24.03 штиль 0 16 км 9/4 400 м
[Cb cap Ac trans]
+28.0 +24.6 82 +40 +40 очень
душно
1007.9 994.0
09 24.03 ЮЗ 2 24 км 6/4 480 м
[Cu med, cong Ac trans Ci sp]
+29.5 +24.1 73 +41 +47 опасность
перегрева
1011.4 997.6
15 24.03 ЮЗ 2 24 км гроза без осадков 5/3 500 м
[Cb cap Ci sp]
+35.5 +22.5 47 +45 +53 опасность
перегрева
1007.1 993.6

 

Местоположение метеостанции Кет-Крачи (Гана): широта 7.82 долгота -0.03 высота над уровнем моря 122 м.

В архиве по умолчанию представлена погода в Кет-Крачи за последнюю неделю. Архивные данные за месяц целиком и за предыдущие месяцы, начиная с января 2011 года, Вы можете получить, выбрав интересующий диапазон дат из раскрывающегося списка и нажав кнопку "Ввод!".


*Определитесь, кто Вы:
робот инопланетянин человек

Внимание! Время в таблицах - всемирное. Для получения местного времени необходимо прибавить поправку, которая равна 1 ч.

Смотрите также архив погоды в соседних городах и на ближайших метеорологических станциях:

Погода в Атакпаме (Того) (130 км)
Погода в Хо (Гана) (146 км)
Погода в Абетифи (Гана) (151 км)
Погода в Йенди (Гана) (181 км)
Погода в Сокоде (Того) (183 км)
Погода в Акюсе (Гана) (192 км)
Погода в Кофоридуа (Гана) (195 км)
Погода в Тамале (Гана) (207 км)
Погода в Акатзи (Гана) (210 км)
Погода в Кумаси (Гана) (212 км)

Пояснения к столбцам:

Ветер - указаны скорость ветра в м/с - средняя за 10 мин, порывы в срок и между сроками (в фигурных скобках) и направление, откуда дует ветер: С - северный, СВ - северо-восточный, В - восточный, ЮВ - юго-восточный, Ю - южный, ЮЗ - юго-западный, З - западный, СЗ - северо-западный.
Видимость - горизонтальная дальность видимости в метрах или километрах. При видимости от 1 до 10 км при отсутствии осадков обычно наблюдается дымка, при ухудшении видимости до 1 км и менее - туман. В сухую погоду видимость может ухудшаться дымом, пылью или мглою.
Явления - указаны атмосферные явления, наблюдавшиеся в срок или в последний час перед сроком; фигурными скобками обозначены явления, наблюдавшиеся между сроками (за 1-3 часа до срока); квадратными скобками обозначены град или гололедные отложения с указанием их диаметра в мм.
Облачность - указаны через наклонную черту общая и нижняя облачность в баллах и высота нижней границы облаков в метрах; квадратными скобками обозначены формы облаков: Ci - перистые, Cs - перисто-слоистые, Cc - перисто-кучевые, Ac - высококучевые, As - высокослоистые, Sc - слоисто-кучевые, Ns - слоисто-дождевые, Cu - кучевые, Cb - кучево-дождевые. Подробнее классификацию облаков см. в Атласе облаков (PDF).
T - Температура воздуха - температура, измеренная на высоте 2 м над землей.
Td - Температура точки росы - температура, при понижении до которой содержащийся в воздухе водяной пар достигнет насыщения.
f - Относительная влажность воздуха - влажноcть воздуха, измеренная на высоте 2 м над землей.
Te - Эффективная температура - температура, которую ощущает одетый по сезону человек в тени. Характеристика душности погоды. При расчете учитывается влияние влажности воздуха и скорости ветра на теплоощущения человека.
Tes - Эффективная температура на солнце - температура, которую ощущает человек, с поправкой на солнечный нагрев. Характеристика знойности погоды. Зависит от высоты солнца над горизонтом, облачности и скорости ветра. Ночью, в пасмурную погоду, а также при ветре 12 м/с и более поправка равна нулю.
P - Атмосферное давление - приведенное к уровню моря атмосферное давление.
Po - Атмосферное давление - измеренное на уровне метеостанции атмосферное давление.
Tmin - Минимальная температура - минимум температуры воздуха на высоте 2 м над землей.
Tmax - Максимальная температура - максимум температуры воздуха на высоте 2 м над землей.
R - Количество осадков - Количество выпавших осадков за период времени, мм. При наведении курсора мыши на число - период времени, за который выпало указанное количество осадков.
R24 - Количество осадков - Количество выпавших осадков за 24 часа, мм.
S - Снежный покров - Высота снежного покрова, см. При наведении курсора мыши на число - состояние снежного покрова и степень покрытия местности в баллах.